TimeSAST,TemperatureF,Dew PointF,Humidity,Sea Level PressureIn,VisibilityMPH,Wind Direction,Wind SpeedMPH,Gust SpeedMPH,PrecipitationIn,Events,Conditions,WindDirDegrees,DateUTC
12:00 AM,62.6,57.2,82,30.09,6.2,Variable,2.3,-,N/A,,Mostly Cloudy,0,2014-03-03 22:00:00
1:00 AM,62.6,57.2,82,30.09,6.2,North,1.2,-,N/A,,Overcast,360,2014-03-03 23:00:00
2:00 AM,63,56,73,30.08,12,NNE,2.3,,,,,30,2014-03-04 00:00:00
2:00 AM,62.6,57.2,82,30.06,6.2,North,2.3,-,N/A,,Overcast,10,2014-03-04 00:00:00
3:00 AM,62.6,57.2,82,30.06,6.2,Variable,1.2,-,N/A,,Mostly Cloudy,0,2014-03-04 01:00:00
4:00 AM,62.6,57.2,82,30.06,6.2,Variable,2.3,-,N/A,,Overcast,0,2014-03-04 02:00:00
5:00 AM,62,58,82,30.07,12,North,3.5,,,,Mostly Cloudy,0,2014-03-04 03:00:00
5:00 AM,62.6,57.2,82,30.06,6.2,North,3.5,-,N/A,,Mostly Cloudy,360,2014-03-04 03:00:00
6:00 AM,62.6,57.2,82,30.06,6.2,Variable,1.2,-,N/A,,Mostly Cloudy,0,2014-03-04 04:00:00
7:00 AM,62.6,59.0,88,30.06,6.2,Variable,1.2,-,N/A,,Mostly Cloudy,0,2014-03-04 05:00:00
8:00 AM,65,56,66,30.10,12,,1.2,,,,Mostly Cloudy,,2014-03-04 06:00:00
8:00 AM,64.4,57.2,77,30.06,6.2,Variable,1.2,-,N/A,,Mostly Cloudy,0,2014-03-04 06:00:00
9:00 AM,66.2,57.2,73,30.09,6.2,SE,3.5,-,N/A,,Mostly Cloudy,130,2014-03-04 07:00:00
10:00 AM,68.0,55.4,64,30.09,6.2,East,5.8,-,N/A,,Mostly Cloudy,100,2014-03-04 08:00:00
11:00 AM,70,57,55,30.09,12,East,6.9,,,,Mostly Cloudy,100,2014-03-04 09:00:00
11:00 AM,69.8,57.2,64,30.06,6.2,East,6.9,-,N/A,,Mostly Cloudy,100,2014-03-04 09:00:00
12:00 PM,71.6,59.0,64,30.06,6.2,SE,10.4,-,N/A,,Scattered Clouds,130,2014-03-04 10:00:00
1:00 PM,71.6,60.8,69,30.04,6.2,ESE,8.1,-,N/A,,Scattered Clouds,120,2014-03-04 11:00:00
2:00 PM,71,62,67,30.06,12,ESE,10.4,,,,Mostly Cloudy,120,2014-03-04 12:00:00
2:00 PM,71.6,60.8,69,30.04,6.2,SSE,12.7,-,N/A,,Scattered Clouds,150,2014-03-04 12:00:00
3:00 PM,69.8,60.8,73,30.04,6.2,SE,10.4,-,N/A,,Mostly Cloudy,140,2014-03-04 13:00:00
4:00 PM,69.8,60.8,73,30.01,6.2,ESE,8.1,-,N/A,,Mostly Cloudy,110,2014-03-04 14:00:00
5:00 PM,68,62,77,30.01,12,ESE,10.4,,,,Mostly Cloudy,110,2014-03-04 15:00:00
5:00 PM,68.0,62.6,83,30.01,6.2,East,8.1,-,N/A,,Mostly Cloudy,100,2014-03-04 15:00:00
6:00 PM,66.2,62.6,88,30.01,6.2,ESE,8.1,-,N/A,,Mostly Cloudy,110,2014-03-04 16:00:00
7:00 PM,66.2,62.6,88,30.01,6.2,ESE,5.8,-,N/A,,Mostly Cloudy,110,2014-03-04 17:00:00
8:00 PM,66,62,81,30.04,12,SSE,4.6,,,,Mostly Cloudy,150,2014-03-04 18:00:00
8:00 PM,66.2,62.6,88,30.04,6.2,SSE,4.6,-,N/A,,Mostly Cloudy,150,2014-03-04 18:00:00
9:00 PM,66.2,62.6,88,30.04,6.2,ESE,2.3,-,N/A,,Mostly Cloudy,110,2014-03-04 19:00:00
10:00 PM,66.2,62.6,88,30.06,6.2,WNW,2.3,-,N/A,,Overcast,300,2014-03-04 20:00:00
11:00 PM,66.2,62.6,88,30.06,6.2,Variable,2.3,-,N/A,,Overcast,0,2014-03-04 21:00:00